• In Uzbekistan
  • List of Countries
  • For 7 days
  • Water Temperature
  • Satellite Maps
  • Weather Map
  • Weather Widgets
  • user-avatar
    Login

    Hourly Weather Atnyash

    Today, 25 May, Friday

    Time Temperature Precipitation Wind Pressure Humidity
    00:00 +14°C° 0.1 mm 1 mps 744 mmHg 92%
    01:00 +14°C° 0.1 mm 1 mps 743 mmHg 92%
    02:00 +13°C° 0.4 mm 2 mps 743 mmHg 92%
    03:00 +13°C° 0.4 mm 2 mps 743 mmHg 92%
    04:00 +13°C° 0 mm 2 mps 743 mmHg 93%
    05:00 +12°C° 0.9 mm 2 mps 743 mmHg 93%
    06:00 +12°C° 0.9 mm 2 mps 743 mmHg 93%
    07:00 +10°C° 0.9 mm 2 mps 743 mmHg 93%
    08:00 +10°C° 0.3 mm 2 mps 743 mmHg 90%
    09:00 +10°C° 0.3 mm 2 mps 743 mmHg 87%
    10:00 +10°C° 0.3 mm 2 mps 743 mmHg 84%
    11:00 +11°C° 0 mm 3 mps 742 mmHg 75%
    12:00 +12°C° 0 mm 3 mps 742 mmHg 66%
    13:00 +13°C° 0 mm 3 mps 742 mmHg 57%
    14:00 +13°C° 0 mm 3 mps 742 mmHg 53%
    15:00 +14°C° 0 mm 4 mps 742 mmHg 48%
    16:00 +14°C° 0 mm 4 mps 743 mmHg 43%
    17:00 +13°C° 0 mm 4 mps 743 mmHg 45%
    18:00 +12°C° 0 mm 4 mps 743 mmHg 47%
    19:00 +11°C° 0 mm 4 mps 743 mmHg 49%
    20:00 +10°C° 0 mm 4 mps 743 mmHg 51%
    21:00 +8°C° 0 mm 4 mps 744 mmHg 53%
    22:00 +6°C° 0 mm 4 mps 744 mmHg 55%
    23:00 +6°C° 0 mm 4 mps 744 mmHg 56%

    Tomorrow, 26 May, Saturday

    Time Temperature Precipitation Wind Pressure Humidity
    00:00 +6°C° 0 mm 4 mps 745 mmHg 58%
    01:00 +6°C° 0 mm 4 mps 745 mmHg 59%
    02:00 +5°C° 0 mm 4 mps 745 mmHg 62%
    03:00 +4°C° 0 mm 4 mps 746 mmHg 64%
    04:00 +3°C° 0 mm 4 mps 746 mmHg 67%
    05:00 +4°C° 0 mm 4 mps 747 mmHg 63%
    06:00 +5°C° 0 mm 5 mps 747 mmHg 60%
    07:00 +6°C° 0 mm 5 mps 748 mmHg 56%
    08:00 +7°C° 0 mm 5 mps 748 mmHg 51%
    09:00 +8°C° 0 mm 5 mps 748 mmHg 46%
    10:00 +9°C° 0 mm 6 mps 749 mmHg 41%
    11:00 +9°C° 0 mm 6 mps 749 mmHg 38%
    12:00 +10°C° 0 mm 6 mps 749 mmHg 36%
    13:00 +11°C° 0 mm 6 mps 749 mmHg 34%
    14:00 +11°C° 0 mm 6 mps 750 mmHg 34%
    15:00 +12°C° 0 mm 5 mps 750 mmHg 34%
    16:00 +12°C° 0 mm 5 mps 750 mmHg 34%
    17:00 +12°C° 0 mm 5 mps 750 mmHg 38%
    18:00 +11°C° 0 mm 4 mps 750 mmHg 41%
    19:00 +10°C° 0 mm 3 mps 750 mmHg 45%
    20:00 +9°C° 0 mm 2 mps 751 mmHg 50%
    21:00 +7°C° 0 mm 2 mps 751 mmHg 55%
    22:00 +5°C° 0 mm 2 mps 751 mmHg 60%
    23:00 +6°C° 0 mm 1 mps 752 mmHg 62%

    Day after tomorrow, 27 May, Sunday

    Time Temperature Precipitation Wind Pressure Humidity
    00:00 +5°C° 0 mm 1 mps 752 mmHg 64%
    01:00 +5°C° 0 mm 1 mps 752 mmHg 67%
    02:00 +4°C° 0 mm 1 mps 752 mmHg 68%
    03:00 +4°C° 0 mm 1 mps 751 mmHg 69%
    04:00 +4°C° 0 mm 1 mps 751 mmHg 70%
    05:00 +5°C° 0 mm 2 mps 751 mmHg 65%
    06:00 +7°C° 0 mm 3 mps 751 mmHg 59%
    07:00 +9°C° 0 mm 3 mps 751 mmHg 54%
    08:00 +10°C° 0 mm 4 mps 750 mmHg 53%
    09:00 +10°C° 0 mm 5 mps 749 mmHg 52%
    10:00 +11°C° 0 mm 6 mps 749 mmHg 51%
    11:00 +14°C° 0 mm 6 mps 748 mmHg 51%
    12:00 +16°C° 0 mm 7 mps 747 mmHg 50%
    13:00 +18°C° 0 mm 8 mps 746 mmHg 49%
    14:00 +18°C° 0.2 mm 7 mps 745 mmHg 54%
    15:00 +18°C° 0.2 mm 7 mps 744 mmHg 59%
    16:00 +17°C° 0.2 mm 7 mps 744 mmHg 63%
    17:00 +16°C° 0.9 mm 7 mps 743 mmHg 71%
    18:00 +15°C° 0.9 mm 6 mps 743 mmHg 78%
    19:00 +14°C° 0.9 mm 6 mps 742 mmHg 86%
    20:00 +14°C° 1.3 mm 5 mps 741 mmHg 89%
    21:00 +13°C° 1.3 mm 5 mps 741 mmHg 92%
    22:00 +13°C° 1.3 mm 5 mps 740 mmHg 95%
    23:00 +13°C° 1.1 mm 5 mps 739 mmHg 95%

    28 May, Monday

    Time Temperature Precipitation Wind Pressure Humidity
    00:00 +13°C° 1.1 mm 5 mps 738 mmHg 95%
    01:00 +13°C° 1.1 mm 6 mps 737 mmHg 95%
    02:00 +10°C° 2.2 mm 6 mps 737 mmHg 94%
    03:00 +9°C° 2.2 mm 6 mps 736 mmHg 93%
    04:00 +8°C° 2.2 mm 5 mps 736 mmHg 92%
    05:00 +7°C° 1 mm 5 mps 736 mmHg 92%
    06:00 +6°C° 1 mm 5 mps 737 mmHg 92%
    07:00 +6°C° 1 mm 4 mps 737 mmHg 92%
    08:00 +6°C° 0.4 mm 5 mps 738 mmHg 87%
    09:00 +7°C° 0.4 mm 5 mps 739 mmHg 83%
    10:00 +8°C° 0.4 mm 5 mps 739 mmHg 78%
    11:00 +8°C° 0.2 mm 6 mps 740 mmHg 69%
    12:00 +9°C° 0.2 mm 6 mps 740 mmHg 60%
    13:00 +10°C° 0.2 mm 7 mps 740 mmHg 50%
    14:00 +9°C° 0.1 mm 7 mps 741 mmHg 50%
    15:00 +9°C° 0.1 mm 6 mps 741 mmHg 50%
    16:00 +9°C° 0.1 mm 6 mps 741 mmHg 50%
    17:00 +8°C° 0.1 mm 6 mps 742 mmHg 55%
    18:00 +7°C° 0.1 mm 5 mps 742 mmHg 59%
    19:00 +6°C° 0.1 mm 4 mps 742 mmHg 64%
    20:00 +5°C° 0 mm 4 mps 743 mmHg 68%
    21:00 +4°C° 0 mm 3 mps 743 mmHg 72%
    22:00 +3°C° 0 mm 3 mps 743 mmHg 77%
    23:00 +2°C° 0 mm 3 mps 743 mmHg 78%

    29 May, Tuesday

    Time Temperature Precipitation Wind Pressure Humidity
    00:00 +2°C° 0 mm 3 mps 743 mmHg 80%
    01:00 +1°C° 0 mm 3 mps 743 mmHg 81%
    02:00 +1°C° 0 mm 3 mps 743 mmHg 83%
    03:00 0°C° 0 mm 3 mps 743 mmHg 84%
    04:00 0°C° 0 mm 3 mps 744 mmHg 86%
    05:00 +1°C° 0 mm 3 mps 744 mmHg 80%
    06:00 +3°C° 0 mm 3 mps 744 mmHg 73%
    07:00 +4°C° 0 mm 4 mps 744 mmHg 66%
    08:00 +5°C° 0.2 mm 4 mps 743 mmHg 63%
    09:00 +6°C° 0.2 mm 5 mps 743 mmHg 59%
    10:00 +6°C° 0.2 mm 5 mps 743 mmHg 55%
    11:00 +7°C° 0.3 mm 5 mps 743 mmHg 55%
    12:00 +7°C° 0.3 mm 5 mps 743 mmHg 55%
    13:00 +7°C° 0.3 mm 5 mps 742 mmHg 55%
    14:00 +7°C° 0.3 mm 5 mps 742 mmHg 56%
    15:00 +7°C° 0.3 mm 5 mps 742 mmHg 57%
    16:00 +7°C° 0.3 mm 5 mps 743 mmHg 58%
    17:00 +7°C° 0.1 mm 4 mps 743 mmHg 60%
    18:00 +7°C° 0.1 mm 4 mps 743 mmHg 61%
    19:00 +7°C° 0.1 mm 3 mps 743 mmHg 63%
    20:00 +4°C° 0 mm 3 mps 743 mmHg 67%
    21:00 +4°C° 0 mm 2 mps 743 mmHg 72%
    22:00 +2°C° 0 mm 2 mps 744 mmHg 76%
    23:00 +1°C° 0 mm 2 mps 744 mmHg 78%

    30 May, Wednesday

    Time Temperature Precipitation Wind Pressure Humidity
    00:00 +1°C° 0 mm 2 mps 744 mmHg 81%
    01:00 -1°C° 0 mm 2 mps 744 mmHg 83%
    02:00 +1°C° 0 mm 1 mps 743 mmHg 84%
    03:00 0°C° 0 mm 1 mps 743 mmHg 85%
    04:00 0°C° 0 mm 1 mps 743 mmHg 87%
    05:00 +2°C° 0 mm 1 mps 743 mmHg 77%
    06:00 +4°C° 0 mm 1 mps 743 mmHg 67%
    07:00 +6°C° 0 mm 1 mps 743 mmHg 58%
    08:00 +7°C° 0 mm 2 mps 742 mmHg 54%
    09:00 +8°C° 0 mm 3 mps 742 mmHg 49%
    10:00 +10°C° 0 mm 3 mps 741 mmHg 45%
    11:00 +8°C° 0.2 mm 4 mps 740 mmHg 52%
    12:00 +8°C° 0.2 mm 5 mps 739 mmHg 59%
    13:00 +8°C° 0.2 mm 5 mps 738 mmHg 66%
    14:00 +7°C° 1.6 mm 5 mps 737 mmHg 74%
    15:00 +4°C° 1.6 mm 6 mps 736 mmHg 83%
    16:00 +3°C° 1.6 mm 6 mps 735 mmHg 91%
    17:00 +5°C° 1.7 mm 5 mps 734 mmHg 92%
    18:00 +5°C° 1.7 mm 5 mps 732 mmHg 93%
    19:00 +5°C° 1.7 mm 4 mps 731 mmHg 95%
    20:00 +5°C° 0.2 mm 4 mps 730 mmHg 95%
    21:00 +7°C° 0.2 mm 3 mps 729 mmHg 96%
    22:00 +7°C° 0.2 mm 2 mps 728 mmHg 97%
    23:00 +8°C° 0.6 mm 3 mps 728 mmHg 97%
    Show more